GW7092 Weather Reports


time (UTC)temp
C
wind
direction
speed
KPH
gust
KPH
rain 1hr
cm
rain 24hr
cm
rain mn
cm
humidity
%
barometer
mb
20260906040022 23 65 0.0 1.6 0.00 0.03 0.03 89 1046.3
20260906035517 23 43 0.0 0.0 0.00 0.03 0.03 89 1046.4
20260906035013 23 318 0.0 3.2 0.00 0.03 0.03 87 1046.0
20260906034512 23 120 1.6 1.6 0.00 0.03 0.03 86 1045.8
20260906034007 23 119 1.6 1.6 0.00 0.03 0.03 86 1045.8
20260906033502 23 119 1.6 1.6 0.00 0.03 0.03 85 1045.8
20260906032958 23 117 1.6 1.6 0.00 0.03 0.03 86 1045.8
20260906032455 23 113 1.6 1.6 0.00 0.03 0.03 86 1045.8
20260906031954 23 219 1.6 1.6 0.00 0.03 0.03 87 1045.9
20260906031450 22 68 6.4 9.7 0.00 0.03 0.03 91 1046.4
20260906030945 22 79 3.2 3.2 0.00 0.03 0.03 94 1045.8
20260906030439 22 177 0.0 0.0 0.00 0.03 0.03 93 1045.6
20260906025934 22 176 0.0 0.0 0.00 0.03 0.03 94 1045.6
20260906025434 22 177 0.0 0.0 0.00 0.03 0.03 93 1045.9
20260906024933 22 177 0.0 0.0 0.00 0.03 0.03 93 1045.8
20260906024433 22 177 0.0 0.0 0.00 0.03 0.03 93 1046.0
20260906023933 23 177 0.0 0.0 0.00 0.03 0.03 92 1046.0
20260906023430 23 177 0.0 0.0 0.00 0.03 0.03 92 1045.9
20260906022930 23 177 0.0 0.0 0.00 0.03 0.03 92 1045.9
20260906022425 23 177 0.0 0.0 0.00 0.03 0.03 92 1046.0
20260906021920 23 177 0.0 0.0 0.00 0.03 0.03 92 1046.0
20260906021420 23 177 0.0 0.0 0.00 0.03 0.03 91 1046.1
20260906020914 23 177 0.0 0.0 0.00 0.03 0.03 90 1046.0
20260906020409 23 176 0.0 0.0 0.00 0.03 0.03 90 1045.7
20260906015903 23 176 0.0 0.0 0.00 0.03 0.03 90 1045.6
20260906015403 24 177 0.0 0.0 0.00 0.03 0.03 91 1045.7
20260906014903 24 177 1.6 1.6 0.00 0.03 0.03 90 1045.9
20260906014403 24 177 0.0 0.0 0.00 0.03 0.03 89 1045.9
20260906013859 25 176 0.0 0.0 0.00 0.03 0.03 88 1045.8
20260906013354 25 176 0.0 0.0 0.00 0.03 0.03 88 1045.7
20260906012850 25 176 0.0 1.6 0.00 0.03 0.03 88 1045.5
20260906012345 25 176 1.6 1.6 0.00 0.03 0.03 88 1045.5
20260906011844 25 177 1.6 1.6 0.00 0.03 0.03 88 1045.5
20260906011339 25 177 0.0 0.0 0.00 0.03 0.03 88 1045.3
20260906010835 25 177 1.6 1.6 0.00 0.03 0.03 88 1045.4
20260906010331 25 84 1.6 1.6 0.00 0.03 0.03 87 1045.4
20260906005826 25 83 0.0 0.0 0.00 0.03 0.03 87 1045.1
20260906005325 25 83 0.0 1.6 0.00 0.03 0.03 87 1044.9
20260906004824 25 167 0.0 0.0 0.00 0.03 0.03 85 1045.1
20260906004324 26 168 1.6 1.6 0.00 0.03 0.03 84 1045.0
20260906003819 26 168 3.2 3.2 0.00 0.03 0.03 84 1045.2
20260906003315 26 166 1.6 3.2 0.00 0.03 0.03 85 1045.2
20260906002810 26 167 3.2 3.2 0.00 0.03 0.03 86 1045.1
20260906002309 26 105 0.0 0.0 0.00 0.03 0.03 85 1045.0
20260906001805 26 105 0.0 1.6 0.00 0.03 0.03 84 1045.3
20260906001300 26 105 1.6 1.6 0.00 0.03 0.03 84 1045.2
20260906000755 27 105 1.6 1.6 0.00 0.03 0.03 82 1045.4
20260906000256 27 105 0.0 0.0 0.00 0.03 0.03 82 1045.2
20260905235750 27 105 1.6 1.6 0.00 0.03 0.03 81 1045.1
20260905235250 28 105 0.0 0.0 0.00 0.03 0.03 80 1045.3
20260905234746 28 105 0.0 0.0 0.00 0.03 0.03 78 1045.4
20260905234241 28 105 1.6 1.6 0.00 0.03 0.03 76 1045.8
20260905233737 28 106 1.6 1.6 0.00 0.03 0.03 77 1045.4
20260905233236 28 105 1.6 1.6 0.00 0.03 0.03 76 1045.6
20260905232736 29 105 1.6 1.6 0.00 0.03 0.03 73 1045.9
20260905232232 29 105 1.6 1.6 0.00 0.03 0.03 72 1045.8
20260905231727 30 104 1.6 1.6 0.00 0.03 0.03 70 1045.8
20260905231223 30 104 1.6 1.6 0.00 0.03 0.03 68 1045.8
20260905230719 31 91 1.6 1.6 0.00 0.03 0.03 68 1045.7
20260905230216 31 22 0.0 0.0 0.00 0.03 0.03 64 1045.6
20260905225716 32 22 0.0 1.6 0.00 0.03 0.03 61 1045.5
20260905225211 32 26 1.6 1.6 0.00 0.03 0.03 58 1045.4
20260905224711 33 12 0.0 1.6 0.00 0.03 0.03 55 1045.4
20260905224206 33 53 1.6 1.6 0.00 0.03 0.03 55 1045.6
20260905223702 33 50 1.6 3.2 0.00 0.03 0.03 53 1045.7
20260905223159 34 0 0.0 1.6 0.00 0.03 0.03 53 1045.6
20260905222654 33 43 1.6 1.6 0.00 0.03 0.03 51 1045.5
20260905222154 34 51 3.2 4.8 0.00 0.03 0.03 48 1045.7
20260905221649 34 327 1.6 3.2 0.00 0.03 0.03 49 1045.3
20260905221146 34 14 1.6 3.2 0.00 0.03 0.03 52 1045.6
20260905220642 33 51 3.2 3.2 0.00 0.03 0.03 49 1045.5
20260905220138 33 62 6.4 9.7 0.00 0.03 0.03 47 1045.4
20260905215637 35 31 8.0 9.7 0.00 0.03 0.03 46 1045.1
20260905215133 35 58 3.2 3.2 0.00 0.03 0.03 46 1044.9
20260905214629 35 338 4.8 3.2 0.00 0.03 0.03 45 1044.9
20260905214129 35 47 3.2 6.4 0.00 0.03 0.03 46 1045.1
20260905213624 35 50 4.8 4.8 0.00 0.03 0.03 44 1044.7
20260905213119 35 300 3.2 3.2 0.00 0.03 0.03 46 1044.9
20260905212615 35 324 1.6 4.8 0.00 0.03 0.03 48 1044.9
20260905212114 35 305 3.2 6.4 0.00 0.03 0.03 47 1044.9
20260905211609 35 283 6.4 12.9 0.00 0.03 0.03 47 1045.0
20260905211104 35 302 4.8 6.4 0.00 0.03 0.03 48 1044.7
20260905210600 35 41 4.8 6.4 0.00 0.03 0.03 45 1045.2
20260905210055 35 51 3.2 6.4 0.00 0.03 0.03 45 1044.9
20260905205555 35 333 3.2 6.4 0.00 0.03 0.03 43 1045.1
20260905205054 35 22 1.6 4.8 0.00 0.03 0.03 45 1045.0
20260905204549 35 53 3.2 6.4 0.00 0.03 0.03 45 1044.8
20260905204044 35 316 9.7 9.7 0.00 0.03 0.03 45 1044.9
20260905203544 35 332 8.0 9.7 0.00 0.03 0.03 44 1045.3
20260905203039 35 232 0.0 6.4 0.00 0.03 0.03 43 1045.1
20260905202535 35 287 4.8 9.7 0.00 0.03 0.03 43 1045.0
20260905202030 35 302 1.6 6.4 0.00 0.03 0.03 45 1045.4
20260905201526 35 344 6.4 6.4 0.00 0.03 0.03 44 1045.5
20260905201025 35 1 3.2 4.8 0.00 0.03 0.03 47 1045.4
20260905200521 35 49 3.2 6.4 0.00 0.03 0.03 46 1045.7
20260905200020 35 16 3.2 6.4 0.00 0.03 0.03 44 1045.7
20260905195514 35 238 6.4 9.7 0.00 0.03 0.03 46 1045.6
20260905195009 35 234 6.4 9.7 0.00 0.03 0.03 44 1045.7
20260905194504 35 163 1.6 3.2 0.00 0.03 0.03 43 1045.7
20260905194003 35 178 1.6 3.2 0.00 0.03 0.03 43 1045.9
20260905193458 35 267 8.0 9.7 0.00 0.03 0.03 43 1046.2
20260905192953 34 177 1.6 1.6 0.00 0.03 0.03 46 1045.9
20260905192448 34 247 3.2 9.7 0.00 0.03 0.03 45 1046.1
20260905191944 34 246 8.0 11.3 0.00 0.03 0.03 46 1045.9
20260905191444 34 247 4.8 9.7 0.00 0.03 0.03 45 1046.1
20260905190943 35 243 4.8 4.8 0.00 0.03 0.03 46 1046.2
20260905190441 34 278 1.6 6.4 0.00 0.03 0.03 45 1046.4
20260905185940 33 296 9.7 9.7 0.00 0.03 0.03 46 1046.3
20260905185435 33 277 9.7 9.7 0.00 0.03 0.03 48 1046.2
20260905184934 34 324 11.3 12.9 0.00 0.03 0.03 47 1046.3
20260905184429 34 223 1.6 3.2 0.00 0.03 0.03 47 1046.6
20260905183927 34 220 3.2 9.7 0.00 0.03 0.03 47 1046.9
20260905183422 33 261 3.2 3.2 0.00 0.03 0.03 47 1046.5
20260905182917 33 211 1.6 6.4 0.00 0.03 0.03 47 1046.4
20260905182416 33 251 4.8 9.7 0.00 0.03 0.03 47 1046.5
20260905181912 32 212 4.8 4.8 0.00 0.03 0.03 46 1047.0
20260905181412 33 216 8.0 12.9 0.00 0.03 0.03 46 1046.8
20260905180911 33 264 3.2 6.4 0.00 0.03 0.03 46 1046.8
20260905180406 33 230 6.4 11.3 0.00 0.03 0.03 48 1046.8
20260905175907 32 202 8.0 9.7 0.00 0.03 0.03 49 1047.3
20260905175406 32 247 6.4 9.7 0.00 0.03 0.03 52 1047.1
20260905174907 32 277 4.8 9.7 0.00 0.03 0.03 48 1047.1
20260905174403 32 273 6.4 6.4 0.00 0.03 0.03 49 1047.2
20260905173858 32 329 1.6 9.7 0.00 0.03 0.03 47 1047.0
20260905173354 32 214 8.0 6.4 0.00 0.03 0.03 48 1047.2
20260905172849 32 192 6.4 11.3 0.00 0.03 0.03 48 1047.3
20260905172347 32 257 4.8 6.4 0.00 0.03 0.03 49 1047.6
20260905171843 32 237 3.2 6.4 0.00 0.03 0.03 51 1047.4
20260905171340 32 251 4.8 6.4 0.00 0.03 0.03 51 1047.6
20260905170835 32 253 3.2 9.7 0.00 0.03 0.03 50 1047.3
20260905170331 32 181 6.4 6.4 0.00 0.03 0.03 51 1047.4
20260905165831 32 191 4.8 4.8 0.00 0.03 0.03 51 1047.3
20260905165327 32 257 3.2 3.2 0.00 0.03 0.03 50 1047.5
20260905164826 31 261 1.6 3.2 0.00 0.03 0.03 50 1047.2
20260905164321 31 105 3.2 4.8 0.00 0.03 0.03 51 1047.2
20260905163816 31 209 4.8 6.4 0.00 0.03 0.03 54 1047.3
20260905163313 31 255 4.8 4.8 0.00 0.03 0.03 53 1047.1
20260905162809 30 230 6.4 9.7 0.00 0.03 0.03 55 1047.1
20260905162308 30 205 1.6 4.8 0.00 0.03 0.03 56 1047.1
20260905161803 30 199 3.2 4.8 0.00 0.03 0.03 56 1047.3
20260905161302 30 209 3.2 6.4 0.00 0.03 0.03 55 1047.5
20260905160801 30 230 4.8 6.4 0.00 0.03 0.03 56 1047.1
20260905160300 30 240 3.2 11.3 0.00 0.03 0.03 58 1047.4
20260905155756 30 217 6.4 9.7 0.00 0.03 0.03 56 1047.7
20260905155254 29 221 6.4 14.5 0.00 0.03 0.03 58 1047.8
20260905154748 29 221 6.4 6.4 0.00 0.03 0.03 60 1047.8
20260905154245 28 246 1.6 9.7 0.00 0.03 0.03 63 1047.9
20260905153740 29 220 4.8 6.4 0.00 0.03 0.03 62 1048.1
20260905153236 29 92 4.8 6.4 0.00 0.03 0.03 61 1048.0
20260905152731 28 218 1.6 3.2 0.00 0.03 0.03 65 1048.2
20260905152230 28 20 3.2 4.8 0.00 0.03 0.03 66 1048.4
20260905151730 27 218 3.2 9.7 0.00 0.03 0.03 66 1048.5
20260905151226 27 225 6.4 6.4 0.00 0.03 0.03 68 1048.9
20260905150721 27 225 4.8 12.9 0.00 0.03 0.03 71 1048.5
20260905150220 27 208 3.2 11.3 0.00 0.03 0.03 70 1048.5
20260905145718 28 199 4.8 6.4 0.00 0.03 0.03 65 1048.8
20260905145213 28 154 4.8 6.4 0.00 0.03 0.03 65 1048.5
20260905144712 28 141 3.2 4.8 0.00 0.03 0.03 65 1048.5
20260905144212 28 164 1.6 4.8 0.00 0.03 0.03 67 1048.6
20260905143711 28 204 1.6 6.4 0.00 0.03 0.03 68 1048.8
20260905143206 27 216 4.8 6.4 0.00 0.03 0.03 67 1048.9
20260905142704 27 68 1.6 3.2 0.00 0.03 0.03 70 1048.6
20260905142205 27 179 1.6 3.2 0.00 0.03 0.03 70 1048.8
20260905141700 27 216 3.2 3.2 0.00 0.03 0.03 71 1048.8
20260905141156 26 146 0.0 1.6 0.00 0.03 0.03 73 1048.6
20260905140651 25 242 1.6 1.6 0.00 0.03 0.03 76 1048.6
20260905140151 25 205 1.6 1.6 0.00 0.03 0.03 80 1048.8
20260905135646 24 89 4.8 4.8 0.00 0.03 0.03 80 1049.0
20260905135141 24 106 0.0 0.0 0.00 0.03 0.03 81 1048.9
20260905134636 23 227 3.2 3.2 0.00 0.03 0.03 84 1049.2
20260905134134 23 121 0.0 3.2 0.00 0.03 0.03 84 1049.3
20260905133630 23 136 1.6 1.6 0.00 0.03 0.03 87 1049.2
20260905133130 22 127 3.2 4.8 0.00 0.03 0.03 86 1049.4
20260905132630 22 207 0.0 4.8 0.00 0.03 0.03 88 1049.5
20260905132125 22 94 4.8 6.4 0.00 0.03 0.03 87 1049.8
20260905131620 22 112 8.0 9.7 0.13 0.03 0.03 87 1049.5
20260905131115 22 90 6.4 11.3 0.13 0.03 0.03 85 1049.4
20260905130615 23 89 4.8 9.7 0.00 0.00 0.00 83 1049.3
20260905130114 23 66 9.7 12.9 0.00 0.00 0.00 81 1049.2
20260905125609 23 70 4.8 6.4 0.00 0.00 0.00 81 1049.2
20260905125104 23 53 3.2 6.4 0.00 0.00 0.00 82 1049.3
20260905124601 23 52 9.7 14.5 0.00 0.00 0.00 82 1049.2
20260905124057 23 17 3.2 3.2 0.00 0.00 0.00 83 1048.8
20260905123552 23 112 1.6 3.2 0.00 0.00 0.00 82 1048.5
20260905123049 23 98 1.6 1.6 0.00 0.00 0.00 82 1048.2
20260905122548 23 94 3.2 3.2 0.00 0.00 0.00 82 1048.7
20260905122043 23 74 0.0 1.6 0.00 0.00 0.00 82 1048.5
20260905121538 23 83 1.6 3.2 0.00 0.00 0.00 83 1048.4
20260905121033 23 181 1.6 3.2 0.00 0.00 0.00 84 1048.1
20260905120532 23 344 3.2 3.2 0.00 0.00 0.00 83 1048.6
20260905120028 23 51 3.2 9.7 0.00 0.00 0.00 85 1048.9
20260905115526 23 3 1.6 9.7 0.00 0.00 0.00 88 1048.6
20260905115021 23 31 3.2 3.2 0.00 0.00 0.00 90 1048.4
20260905114521 23 350 0.0 3.2 0.00 0.00 0.00 90 1048.2
20260905114020 23 154 1.6 3.2 0.00 0.00 0.00 88 1048.2
20260905113515 23 142 0.0 1.6 0.00 0.00 0.00 88 1048.4
20260905113010 23 119 1.6 3.2 0.00 0.00 0.00 88 1047.8
20260905112506 23 49 3.2 4.8 0.00 0.00 0.00 88 1048.0
20260905112001 23 87 4.8 9.7 0.00 0.00 0.00 89 1048.0
20260905111501 23 22 4.8 6.4 0.00 0.00 0.00 95 1048.7
20260905110955 22 77 6.4 9.7 0.00 0.00 0.00 98 1048.6
20260905110454 22 29 4.8 6.4 0.00 0.00 0.00 98 1048.2
20260905105949 22 68 4.8 4.8 0.00 0.00 0.00 98 1047.9
20260905105449 22 341 0.0 0.0 0.00 0.00 0.00 98 1047.9
20260905104948 22 341 1.6 1.6 0.00 0.00 0.00 98 1047.7
20260905104445 22 11 1.6 3.2 0.00 0.00 0.00 98 1047.8
20260905103945 21 336 3.2 4.8 0.00 0.00 0.00 98 1047.6
20260905103440 21 192 0.0 0.0 0.00 0.00 0.00 98 1047.4
20260905102936 21 192 0.0 0.0 0.00 0.00 0.00 98 1047.4
20260905102432 21 192 1.6 1.6 0.00 0.00 0.00 98 1047.3
20260905101927 21 192 0.0 0.0 0.00 0.00 0.00 98 1047.4
20260905101425 21 192 0.0 0.0 0.00 0.00 0.00 98 1047.3
20260905100920 21 192 0.0 0.0 0.00 0.00 0.00 97 1047.3
20260905100416 21 192 0.0 0.0 0.00 0.00 0.00 98 1047.0
20260905095915 21 192 0.0 1.6 0.00 0.00 0.00 98 1047.2
20260905095410 21 192 0.0 0.0 0.00 0.00 0.00 97 1047.5
20260905094910 21 192 0.0 0.0 0.00 0.00 0.00 98 1047.7
20260905094406 21 192 0.0 0.0 0.00 0.00 0.00 97 1047.2
20260905093905 21 192 0.0 0.0 0.00 0.00 0.00 97 1047.2
20260905093401 21 192 0.0 0.0 0.00 0.00 0.00 97 1047.2
20260905092856 21 192 0.0 0.0 0.00 0.00 0.00 97 1047.0
20260905092357 21 192 0.0 0.0 0.00 0.00 0.00 97 1046.9
20260905091857 21 192 0.0 0.0 0.00 0.00 0.00 97 1047.0
20260905091356 21 192 0.0 0.0 0.00 0.00 0.00 97 1047.0
20260905090855 21 192 0.0 0.0 0.00 0.00 0.00 97 1047.0
20260905090351 21 192 0.0 0.0 0.00 0.00 0.00 97 1047.2
20260905085851 21 192 0.0 0.0 0.00 0.00 0.00 97 1047.0
20260905085351 21 192 0.0 0.0 0.00 0.00 0.00 97 1047.0
20260905084847 21 192 0.0 0.0 0.00 0.00 0.00 97 1047.0
20260905084345 21 192 0.0 0.0 0.00 0.00 0.00 97 1046.9
20260905083841 21 192 0.0 0.0 0.00 0.00 0.00 97 1046.9
20260905083337 21 192 0.0 0.0 0.00 0.00 0.00 97 1046.9
20260905082832 21 192 0.0 1.6 0.00 0.00 0.00 97 1047.0
20260905082328 21 192 0.0 0.0 0.00 0.00 0.00 97 1046.9
20260905081828 21 192 1.6 1.6 0.00 0.00 0.00 97 1046.9
20260905081323 21 192 0.0 1.6 0.00 0.00 0.00 97 1047.0
20260905080823 21 192 0.0 0.0 0.00 0.00 0.00 97 1047.1
20260905080317 21 192 0.0 0.0 0.00 0.00 0.00 97 1047.0
20260905075816 21 192 0.0 0.0 0.00 0.00 0.00 97 1047.1
20260905075316 22 192 0.0 0.0 0.00 0.00 0.00 97 1047.1
20260905074815 22 192 0.0 0.0 0.00 0.00 0.00 97 1047.2
20260905074311 21 192 0.0 0.0 0.00 0.00 0.00 97 1046.9
20260905073807 21 192 0.0 0.0 0.00 0.00 0.00 96 1047.2
20260905073302 22 192 0.0 0.0 0.00 0.00 0.00 96 1047.2
20260905072801 22 192 0.0 0.0 0.00 0.00 0.00 96 1047.5
20260905072257 22 192 0.0 1.6 0.00 0.00 0.00 96 1047.4
20260905071753 22 192 0.0 0.0 0.00 0.00 0.00 96 1047.4
20260905071249 22 192 0.0 0.0 0.00 0.00 0.00 96 1047.7
20260905070744 22 192 0.0 0.0 0.00 0.00 0.00 96 1047.6
20260905070240 22 192 0.0 0.0 0.00 0.00 0.00 96 1047.6
20260905065739 22 192 0.0 0.0 0.00 0.00 0.00 96 1047.7
20260905065238 22 192 0.0 0.0 0.00 0.00 0.00 96 1047.6
20260905064733 22 192 0.0 0.0 0.00 0.00 0.00 96 1047.5
20260905064229 22 192 0.0 0.0 0.00 0.00 0.00 96 1047.3
20260905063727 22 192 1.6 1.6 0.00 0.00 0.00 96 1047.6
20260905063224 22 192 0.0 0.0 0.00 0.00 0.00 96 1047.8
20260905062720 22 192 0.0 1.6 0.00 0.00 0.00 96 1047.8
20260905062220 22 192 0.0 0.0 0.00 0.00 0.00 96 1048.0
20260905061719 22 192 0.0 0.0 0.00 0.00 0.00 95 1048.0
20260905061214 22 192 0.0 0.0 0.00 0.00 0.00 95 1047.9
20260905060709 22 192 1.6 1.6 0.00 0.00 0.00 95 1048.2
20260905060206 22 192 0.0 0.0 0.00 0.00 0.00 95 1048.4
20260905055704 22 192 0.0 0.0 0.00 0.00 0.00 95 1048.5
20260905055159 22 192 0.0 0.0 0.00 0.00 0.00 95 1048.6
20260905054655 22 192 1.6 1.6 0.00 0.00 0.00 95 1048.5
20260905054151 22 192 0.0 0.0 0.00 0.00 0.00 95 1048.4
20260905053650 22 192 0.0 0.0 0.00 0.00 0.00 95 1048.2
20260905053145 22 192 1.6 1.6 0.00 0.00 0.00 94 1048.2
20260905052644 23 192 0.0 1.6 0.00 0.00 0.00 94 1048.4
20260905052139 23 193 0.0 0.0 0.00 0.00 0.00 94 1048.5
20260905051634 23 193 0.0 0.0 0.00 0.00 0.00 94 1048.5
20260905051131 23 193 0.0 0.0 0.00 0.00 0.00 94 1048.4
20260905050627 23 193 0.0 0.0 0.00 0.00 0.00 94 1048.8
20260905050124 23 193 1.6 1.6 0.00 0.00 0.00 94 1048.4
20260905045624 23 193 1.6 1.6 0.00 0.00 0.00 94 1048.7
20260905045119 23 193 1.6 3.2 0.00 0.00 0.00 94 1048.8
20260905044620 23 193 3.2 3.2 0.00 0.00 0.00 94 1048.7
20260905044119 23 193 3.2 3.2 0.00 0.00 0.00 93 1048.7
20260905043618 23 192 1.6 1.6 0.00 0.00 0.00 93 1048.6
20260905043114 23 192 1.6 1.6 0.00 0.00 0.00 93 1048.4
20260905042612 23 192 0.0 0.0 0.00 0.00 0.00 93 1048.5
20260905042108 23 192 1.6 1.6 0.00 0.00 0.00 93 1048.5
20260905041603 23 197 1.6 3.2 0.00 0.00 0.00 94 1048.5
20260905041059 23 197 3.2 3.2 0.00 0.00 0.00 94 1048.6
20260905040558 23 196 1.6 3.2 0.00 0.00 0.00 95 1048.4